Wind_Speed
75 71 72 64 56 51 43 32 24 13 10 16 26 30 38 47 58 65 66 62 58 53 46 40 37 32 26 21 24 21 15 11 14 16 16 16 17 14 11 10 7 21 24 27 26 31 29 28 29 32 36 43 47 54
72 69 70 62 52 47 42 28 23 13 13 21 29 32 44 53 62 67 66 63 57 52 46 40 39 35 28 23 22 25 20 16 13 14 18 15 14 13 11 13 15 17 20 19 22 25 26 24 27 29 29 42 47 50
70 67 66 58 49 44 38 28 21 13 15 25 31 36 45 54 67 69 66 62 57 51 47 40 40 36 31 25 22 23 23 22 19 16 17 18 17 14 15 16 17 16 15 16 18 19 20 24 28 31 34 43 48 51
67 67 65 57 49 42 34 26 18 13 19 29 34 39 47 61 68 69 66 61 56 51 47 43 42 41 33 29 24 21 21 21 21 19 18 20 21 22 21 19 17 17 16 17 18 20 22 22 24 28 33 43 49 52
65 65 63 55 47 41 33 24 16 14 22 32 37 40 52 67 71 71 66 59 55 50 46 43 40 45 38 32 27 23 19 21 21 24 22 22 20 19 17 18 20 19 19 18 19 18 19 20 22 28 34 40 45 49
62 64 60 52 45 39 31 23 14 14 24 33 38 44 57 68 72 71 67 59 55 52 47 43 38 43 42 36 32 26 23 21 23 26 24 24 22 22 20 16 13 11 15 16 16 18 18 18 18 20 24 31 38 42
60 63 57 50 43 37 29 21 12 13 25 35 39 46 56 67 72 72 67 63 58 52 48 43 42 37 44 40 36 30 29 25 23 24 26 25 24 26 24 21 19 18 17 15 15 15 15 17 20 22 24 27 30 34
58 61 56 48 41 35 26 20 11 13 26 35 39 46 57 69 74 75 71 64 60 54 51 45 42 38 37 42 38 33 32 31 27 25 24 27 28 27 25 23 21 19 18 18 17 16 16 17 19 20 21 23 25 29
54 57 53 46 38 33 25 18 11 13 26 36 42 46 58 71 77 77 72 65 60 54 50 48 42 39 37 33 39 35 33 32 28 25 23 23 27 26 26 25 24 22 22 21 19 18 19 20 21 21 22 24 25 27
53 54 52 44 38 32 24 17 10 13 26 38 42 45 59 72 77 77 72 66 60 54 50 45 42 39 35 36 30 36 37 34 33 30 28 30 30 29 25 24 24 25 25 24 23 22 22 22 22 24 26 30 32 35
51 52 50 42 36 31 23 15 12 13 25 36 43 48 60 77 80 79 75 67 59 51 48 48 46 43 40 37 34 33 36 40 38 35 35 38 36 32 30 29 29 29 28 26 26 27 27 28 28 30 33 36 40 43
50 51 48 40 33 31 24 16 12 14 23 34 43 50 62 76 78 76 72 65 57 55 50 50 51 49 46 43 40 36 32 32 36 37 44 48 40 40 41 39 37 36 35 34 34 35 35 35 36 37 40 42 45 47
49 50 48 41 31 27 23 16 14 16 23 34 45 50 58 68 70 68 68 62 57 55 59 61 57 56 53 49 45 41 33 32 32 35 42 43 38 44 49 47 47 46 44 43 41 40 40 41 42 42 44 47 47 36
48 49 47 42 31 26 21 17 13 18 23 31 41 48 54 58 64 68 69 70 72 70 71 69 65 59 56 55 49 41 38 38 37 40 39 33 37 37 39 47 59 56 51 48 46 45 44 43 44 47 49 41 32 26
48 48 47 41 31 25 22 17 14 16 22 27 33 42 48 58 66 71 75 78 78 77 75 73 67 63 58 54 49 44 44 41 47 45 35 30 29 30 38 40 41 49 55 51 48 47 46 46 47 40 34 30 29 29
47 48 48 41 34 25 23 20 17 15 20 24 27 32 45 56 65 75 81 84 84 83 80 75 69 63 59 53 51 45 44 51 52 43 37 31 30 30 32 33 33 35 41 45 46 48 47 40 35 33 32 33 35 36
44 48 49 41 34 27 22 20 19 17 15 20 26 32 43 52 65 75 84 87 88 85 81 77 73 68 65 59 53 51 54 54 49 45 40 36 35 33 28 26 28 32 36 38 38 35 33 33 34 36 38 40 41 43
44 47 50 43 34 28 26 21 18 18 17 19 29 35 40 53 63 72 82 87 87 88 85 82 79 75 69 63 62 62 61 54 50 49 45 43 42 40 36 33 31 30 31 31 32 33 35 37 39 42 44 47 49 51
42 47 51 46 38 30 27 25 20 18 19 23 29 40 44 53 63 70 76 82 86 89 90 88 83 77 74 73 71 69 65 59 56 54 53 50 49 47 44 42 41 40 40 40 40 42 43 45 47 49 52 53 55 58
40 45 50 47 39 29 26 26 23 21 21 25 30 40 49 53 61 67 71 76 84 89 91 89 85 85 84 80 77 75 71 66 63 62 60 58 57 56 53 52 51 50 50 50 50 51 52 53 55 56 58 61 63 65
41 46 49 47 41 32 27 25 26 25 24 26 33 38 48 57 62 66 69 73 79 83 87 91 91 89 90 87 83 80 78 75 72 70 69 66 64 63 61 60 59 58 58 58 59 59 60 61 63 64 66 69 70 72
43 48 51 48 42 38 32 27 26 28 27 30 33 40 47 56 63 68 71 73 75 78 82 87 89 90 91 91 89 86 83 81 79 78 76 74 73 72 70 68 67 66 67 67 67 67 68 69 70 72 74 75 76 78
43 49 51 48 43 39 35 30 29 29 31 31 35 40 47 54 62 67 70 71 72 74 78 82 85 87 88 88 88 88 88 86 84 83 82 81 80 79 78 76 76 75 75 75 74 75 75 76 77 79 80 82 83 84
46 52 51 49 42 39 35 33 31 31 32 34 36 41 46 53 60 67 68 70 71 75 77 78 80 82 84 86 88 89 88 87 87 86 86 87 87 86 86 85 84 83 82 82 82 83 83 84 84 85 86 88 90 91
49 53 52 48 41 40 38 34 33 32 33 35 38 40 44 50 55 61 68 71 69 72 77 79 80 81 83 85 85 84 85 87 88 88 88 89 90 89 89 88 88 88 88 88 89 89 88 88 89 90 92 93 94 95
52 54 53 47 43 41 38 36 34 33 33 34 36 38 43 46 52 57 64 68 70 73 73 75 79 81 82 82 84 86 86 86 87 89 91 92 93 93 92 92 92 91 91 93 92 90 90 92 93 93 93 92 91 91
55 56 52 46 41 38 38 37 35 34 33 32 35 37 39 43 46 52 58 64 70 73 71 73 76 77 79 80 82 83 83 84 84 85 86 86 86 87 88 89 91 92 93 91 89 88 89 89 88 87 88 89 88 87
57 56 52 46 41 38 39 38 34 32 32 32 33 35 38 40 43 47 53 59 61 68 72 74 76 75 76 78 79 81 83 83 83 83 83 83 83 84 84 83 83 84 82 80 79 80 80 81 82 84 85 85 85 85
58 54 48 43 41 40 39 38 34 32 32 32 32 34 36 38 41 45 49 53 56 63 70 73 75 75 75 77 79 80 81 82 83 83 83 84 84 84 84 83 82 80 79 80 80 80 80 80 80 80 81 81 81 81
54 51 46 44 43 41 39 38 34 32 32 31 31 32 34 36 37 41 46 50 54 58 63 68 72 74 75 77 79 82 83 83 83 83 84 84 83 84 84 84 83 83 83 82 82 81 81 80 80 80 80 80 80 80
52 48 47 46 44 40 38 38 34 32 32 30 30 30 32 34 36 39 43 46 50 54 58 62 64 66 69 72 77 80 82 83 84 85 85 84 83 83 83 84 84 84 83 83 83 83 83 82 82 81 80 80 79 76
48 50 50 47 43 38 37 36 35 32 30 29 28 30 30 32 34 37 40 43 47 51 53 55 57 59 61 64 68 72 75 77 79 80 81 81 81 82 82 81 81 81 81 80 79 78 78 76 75 73 71 69 68 66
48 49 47 44 40 36 34 34 34 31 28 26 26 27 29 31 32 35 38 40 43 45 47 49 51 53 56 59 60 62 64 67 69 70 70 70 71 72 73 74 73 73 73 74 74 73 72 69 66 65 64 62 58 54
Wind_Direction
337 337 338 338 339 334 333 324 315 292 248 220 205 200 186 182 177 173 168 168 172 173 172 171 172 179 184 184 178 174 176 178 157 163 165 174 176 178 169 186 184 226 222 213 221 213 220 221 216 209 208 206 202 201
336 336 338 337 338 331 329 322 308 279 226 212 205 197 186 179 179 176 171 173 177 175 172 172 174 182 183 188 184 184 179 175 176 178 186 188 193 193 182 191 199 206 214 221 223 230 238 236 237 225 227 213 210 207
336 336 338 336 336 330 327 319 300 274 216 208 204 195 186 182 179 179 175 177 179 179 172 174 176 185 187 189 191 187 187 182 181 189 191 191 198 205 210 210 211 211 215 217 215 219 221 221 224 230 224 215 214 216
336 337 337 336 334 329 325 313 292 261 209 204 203 196 186 183 182 182 179 181 182 181 175 177 179 184 193 190 196 190 189 189 184 184 185 182 189 201 214 219 221 223 225 229 228 226 225 221 219 222 222 219 219 222
336 337 337 336 333 328 325 314 288 248 207 205 203 195 186 185 184 184 183 184 184 185 180 180 182 186 194 192 197 196 191 194 193 185 184 185 190 186 193 203 208 216 222 222 228 230 231 231 228 228 228 229 230 232
336 338 337 337 332 328 325 315 288 239 208 205 204 196 189 187 186 186 184 184 189 189 186 185 186 191 196 199 197 199 194 204 205 205 196 196 194 191 194 195 196 200 198 205 216 227 234 237 238 234 233 236 240 244
336 338 337 337 334 330 326 314 292 236 204 205 204 198 192 188 186 187 186 187 191 192 191 189 192 195 198 205 204 200 202 201 207 211 214 213 213 212 207 207 207 215 218 213 219 228 233 234 237 240 242 243 244 247
336 339 338 338 335 331 326 313 287 232 207 205 205 200 191 188 188 189 191 189 193 195 195 193 195 198 200 205 209 206 206 207 208 215 219 218 218 220 223 221 222 222 228 232 233 237 246 248 248 251 251 253 256 258
337 341 340 337 336 332 328 316 285 233 209 204 205 202 192 191 192 193 194 192 195 197 198 200 197 200 205 208 209 215 208 213 209 213 225 224 220 220 225 221 222 221 221 224 226 230 231 236 244 251 253 252 255 259
337 343 342 337 335 334 330 318 285 236 212 204 205 204 196 192 194 198 196 193 196 199 201 203 203 204 205 213 209 213 221 217 222 216 217 222 225 220 216 227 233 226 221 226 236 243 250 257 263 266 269 268 268 270
337 344 344 338 336 334 331 320 284 241 217 205 206 203 199 196 197 199 197 196 194 201 205 206 211 211 209 212 213 209 213 222 226 224 228 230 227 229 230 229 231 234 237 243 248 255 257 262 264 266 270 273 276 277
336 343 346 340 338 333 329 318 286 248 222 211 205 205 202 201 202 200 197 195 194 200 208 212 214 216 218 218 219 216 210 212 220 224 230 236 235 234 238 240 240 241 243 249 255 258 261 264 268 274 279 283 288 289
333 342 347 339 337 333 326 313 288 255 228 215 210 208 207 210 209 200 196 193 195 201 210 215 215 217 219 221 222 223 217 217 221 224 230 234 240 241 243 245 244 242 245 250 254 258 262 268 273 278 283 287 287 283
330 341 345 341 336 331 325 308 287 262 240 221 215 212 213 212 208 199 196 197 202 205 211 215 216 215 218 221 224 225 228 230 233 236 235 236 242 250 251 246 244 244 245 247 252 257 261 267 271 275 280 275 269 268
328 339 343 341 332 332 323 310 287 267 250 228 218 216 212 210 206 204 201 203 207 210 214 218 219 219 219 222 224 226 231 236 240 242 244 249 259 269 269 262 252 245 244 247 251 256 263 266 271 270 263 259 264 268
326 335 341 343 334 330 324 312 294 270 260 239 216 213 212 211 208 205 206 208 210 214 217 219 221 222 223 224 227 227 231 237 241 245 249 252 260 265 266 259 253 245 246 251 257 261 265 264 262 259 259 263 268 271
323 331 337 341 336 328 321 312 301 283 263 247 216 211 210 213 212 210 210 212 215 216 218 221 222 223 224 224 227 227 231 237 243 246 249 252 255 257 258 257 252 251 251 253 253 252 252 254 255 259 263 267 271 275
320 328 333 336 336 330 319 310 298 285 259 239 217 208 206 212 214 215 214 215 216 219 220 221 225 225 225 226 228 230 233 237 243 246 248 250 252 254 255 254 253 252 251 252 253 255 257 259 262 264 267 270 274 277
317 324 328 333 331 330 319 307 296 282 261 238 222 211 206 210 216 218 218 219 219 221 222 223 225 227 227 228 230 232 234 236 240 245 248 250 253 253 254 254 254 254 255 257 258 260 261 263 266 268 272 276 279 281
314 320 323 328 325 327 321 306 294 283 263 243 230 219 211 210 216 219 221 221 221 223 224 225 225 227 229 229 230 233 235 237 240 244 247 250 251 253 254 256 257 258 257 258 260 261 264 266 269 272 275 276 278 281
313 317 322 325 323 321 317 307 296 284 270 251 233 225 219 214 214 218 221 223 224 225 226 226 227 229 229 231 233 233 235 237 239 242 245 248 250 252 253 255 257 259 261 263 264 265 266 268 270 272 275 277 279 282
313 316 319 322 322 319 314 302 293 284 274 258 240 229 224 221 217 217 218 221 223 226 227 229 230 231 232 233 234 236 237 239 240 243 245 248 250 252 254 256 258 259 261 262 264 267 269 271 274 276 277 280 283 284
311 313 316 318 320 316 312 304 294 284 275 261 249 235 227 226 224 221 220 220 223 225 228 231 232 233 234 235 236 237 238 240 242 243 245 248 251 253 255 257 259 260 262 263 265 267 269 271 273 275 277 279 281 283
309 312 317 316 318 317 308 302 294 283 276 265 252 243 234 227 228 227 224 221 221 224 227 230 233 235 237 238 238 239 240 242 244 246 248 250 250 252 254 256 258 261 263 265 267 269 271 273 275 277 278 280 282 284
308 312 315 315 319 314 304 299 293 284 275 267 257 246 240 234 229 228 228 225 222 223 226 229 232 235 237 240 241 241 242 244 245 247 248 251 253 254 254 256 258 260 263 266 268 269 271 274 276 277 279 281 283 285
307 312 313 314 316 313 305 299 293 286 277 267 257 248 242 238 232 227 229 229 224 224 224 226 230 233 236 239 241 244 246 247 248 249 251 252 254 256 257 258 260 261 263 264 267 269 272 274 276 278 280 282 282 283
308 311 314 315 313 308 302 297 293 288 279 268 258 249 244 240 237 231 228 229 228 226 225 225 228 230 234 236 239 242 245 247 249 250 251 253 255 257 259 260 261 263 264 266 269 271 273 274 276 277 278 279 281 282
308 312 313 312 310 308 304 297 292 286 277 269 259 253 247 243 240 236 231 229 230 228 227 225 227 229 232 234 237 239 242 245 248 250 252 254 255 257 259 261 262 263 265 268 269 269 270 271 272 274 276 277 278 280
307 308 308 309 311 309 304 297 292 285 276 270 261 254 249 245 241 237 234 231 228 228 230 229 228 228 230 233 236 238 240 242 244 246 249 252 255 258 260 260 261 264 265 267 269 270 271 272 274 276 278 280 282 283
307 309 310 311 310 307 302 296 291 284 277 270 261 255 250 245 242 239 235 232 231 230 231 233 233 233 231 231 234 237 239 240 243 245 247 248 251 254 257 260 263 265 267 269 270 272 274 276 278 279 280 282 284 287
307 309 310 310 307 304 299 294 290 282 276 267 259 257 251 248 242 239 236 234 232 232 233 235 237 238 238 236 236 238 240 243 244 246 248 250 252 254 256 258 260 262 264 267 269 271 273 276 278 280 282 284 286 288
308 309 307 306 303 300 293 289 285 281 275 265 260 260 254 248 245 242 239 236 234 234 236 239 241 242 242 242 243 243 244 245 247 249 250 253 255 256 259 261 262 264 267 269 271 274 276 278 281 284 286 287 288 289
307 304 303 301 299 295 289 284 282 280 274 266 263 260 256 250 246 243 242 239 237 236 238 240 241 243 245 247 248 249 249 250 252 254 256 257 257 259 261 264 266 268 270 272 274 276 278 280 280 282 282 284 287 288
Height
10316 10300 10286 10274 10261 10249 10242 10234 10228 10227 10227 10231 10236 10240 10246 10256 10264 10270 10279 10291 10302 10312 10322 10332 10340 10348 10354 10361 10366 10370 10374 10375 10379 10383 10385 10389 10393 10397 10399 10402 10406 10411 10414 10419 10422 10426 10430 10436 10442 10449 10456 10460 10467 10473
10308 10293 10279 10266 10257 10245 10235 10232 10224 10224 10226 10231 10234 10238 10246 10255 10265 10273 10280 10290 10303 10313 10321 10330 10338 10346 10353 10359 10365 10370 10375 10378 10379 10381 10387 10390 10392 10395 10400 10405 10408 10411 10415 10420 10425 10429 10434 10438 10442 10448 10453 10459 10464 10471
10300 10285 10272 10260 10250 10240 10230 10224 10218 10220 10221 10227 10231 10238 10246 10255 10263 10274 10282 10291 10302 10312 10320 10329 10337 10345 10352 10358 10363 10369 10374 10378 10382 10385 10385 10388 10392 10396 10399 10403 10407 10411 10415 10419 10422 10426 10430 10434 10439 10443 10447 10454 10460 10466
10292 10277 10264 10252 10242 10234 10226 10219 10215 10215 10217 10223 10229 10236 10244 10254 10262 10273 10282 10292 10302 10311 10318 10327 10335 10343 10349 10356 10362 10367 10373 10378 10382 10385 10389 10390 10393 10396 10399 10402 10405 10409 10413 10417 10421 10422 10425 10430 10434 10438 10442 10447 10453 10460
10284 10270 10257 10245 10234 10226 10219 10214 10211 10210 10212 10217 10224 10232 10241 10250 10259 10270 10281 10293 10303 10311 10317 10325 10333 10340 10347 10354 10361 10366 10372 10377 10382 10385 10389 10391 10393 10396 10399 10402 10405 10409 10412 10416 10417 10420 10423 10427 10431 10435 10440 10446 10451 10455
10277 10262 10250 10239 10228 10219 10212 10207 10206 10206 10208 10214 10222 10229 10237 10245 10256 10269 10280 10292 10301 10308 10315 10322 10331 10338 10345 10351 10358 10364 10369 10374 10379 10383 10386 10389 10393 10395 10398 10401 10405 10408 10411 10413 10416 10419 10422 10425 10428 10432 10436 10440 10444 10447
10270 10256 10244 10233 10222 10214 10206 10201 10202 10202 10205 10210 10217 10226 10234 10245 10256 10267 10277 10284 10297 10306 10313 10320 10327 10334 10341 10347 10354 10361 10367 10371 10375 10379 10383 10386 10390 10394 10397 10400 10403 10406 10410 10413 10416 10418 10421 10423 10425 10428 10431 10434 10437 10440
10263 10250 10237 10227 10217 10209 10202 10197 10196 10199 10201 10207 10215 10223 10232 10244 10253 10261 10269 10282 10293 10301 10310 10318 10324 10332 10338 10344 10350 10357 10364 10368 10372 10376 10380 10383 10386 10389 10394 10398 10401 10404 10407 10411 10414 10416 10419 10421 10424 10426 10429 10431 10433 10435
10258 10245 10232 10221 10212 10205 10198 10194 10193 10194 10198 10203 10211 10220 10229 10239 10249 10256 10266 10279 10290 10301 10309 10315 10323 10330 10336 10341 10348 10353 10360 10365 10371 10376 10379 10382 10384 10388 10392 10395 10398 10402 10405 10408 10410 10413 10415 10418 10421 10423 10424 10425 10426 10428
10251 10240 10227 10216 10207 10201 10195 10190 10190 10192 10195 10199 10207 10216 10225 10235 10241 10251 10265 10274 10287 10297 10306 10315 10322 10326 10333 10337 10344 10350 10355 10361 10366 10372 10374 10377 10380 10385 10390 10394 10397 10399 10401 10403 10406 10408 10411 10414 10416 10417 10419 10419 10420 10420
10245 10234 10222 10212 10203 10196 10192 10189 10188 10189 10193 10198 10204 10212 10219 10225 10233 10243 10259 10272 10287 10299 10305 10310 10316 10321 10326 10331 10337 10342 10348 10354 10359 10364 10366 10368 10373 10379 10384 10388 10390 10392 10395 10397 10400 10403 10406 10408 10409 10410 10410 10411 10410 10409
10238 10228 10218 10209 10201 10193 10188 10186 10185 10186 10188 10195 10202 10209 10214 10218 10226 10238 10257 10274 10286 10291 10299 10304 10308 10314 10320 10325 10330 10335 10342 10348 10352 10355 10358 10358 10367 10372 10376 10380 10384 10386 10388 10391 10393 10395 10398 10399 10399 10400 10399 10398 10397 10394
10231 10222 10213 10204 10198 10191 10185 10182 10181 10181 10182 10188 10193 10200 10206 10211 10224 10247 10264 10277 10284 10287 10284 10285 10294 10302 10309 10317 10323 10329 10337 10341 10345 10347 10347 10353 10360 10365 10368 10370 10373 10377 10380 10382 10384 10386 10387 10388 10389 10389 10388 10387 10384 10382
10223 10216 10207 10199 10194 10188 10182 10179 10177 10177 10178 10180 10185 10193 10199 10214 10229 10249 10259 10262 10260 10263 10263 10270 10280 10291 10299 10307 10316 10326 10331 10333 10334 10333 10338 10349 10351 10353 10355 10358 10361 10364 10369 10372 10374 10376 10377 10378 10378 10378 10377 10375 10374 10374
10215 10209 10202 10194 10187 10183 10178 10174 10172 10172 10173 10174 10179 10187 10200 10212 10224 10237 10244 10246 10248 10250 10255 10261 10274 10284 10292 10302 10312 10319 10321 10326 10320 10323 10333 10338 10342 10343 10343 10344 10346 10350 10355 10359 10362 10365 10366 10367 10367 10366 10366 10366 10366 10365
10206 10200 10195 10189 10181 10177 10172 10169 10167 10167 10167 10170 10174 10183 10196 10204 10213 10222 10227 10229 10233 10237 10244 10256 10268 10280 10289 10299 10303 10312 10315 10309 10308 10320 10327 10332 10334 10336 10335 10335 10337 10339 10344 10349 10352 10354 10354 10354 10355 10356 10356 10357 10356 10355
10199 10193 10187 10183 10176 10169 10167 10163 10160 10160 10162 10166 10170 10174 10184 10193 10202 10209 10212 10215 10220 10230 10240 10249 10258 10267 10276 10287 10294 10299 10295 10298 10306 10313 10319 10324 10326 10327 10328 10328 10328 10330 10333 10337 10340 10341 10343 10345 10346 10347 10347 10347 10346 10345
10189 10185 10180 10175 10169 10162 10158 10156 10155 10153 10154 10157 10161 10164 10171 10180 10187 10194 10198 10204 10214 10220 10229 10237 10244 10255 10267 10276 10279 10281 10285 10294 10299 10303 10308 10312 10315 10318 10319 10321 10322 10324 10325 10328 10330 10332 10334 10336 10336 10336 10335 10334 10333 10332
10181 10175 10171 10167 10161 10156 10150 10147 10146 10145 10145 10146 10149 10152 10156 10164 10171 10177 10184 10193 10201 10206 10214 10222 10233 10246 10254 10259 10264 10268 10275 10283 10287 10291 10296 10300 10303 10307 10309 10311 10313 10315 10317 10319 10321 10322 10324 10324 10324 10323 10323 10321 10320 10318
10171 10167 10163 10158 10152 10147 10142 10138 10135 10134 10135 10135 10137 10141 10144 10148 10154 10160 10169 10178 10185 10191 10198 10210 10224 10227 10232 10241 10248 10255 10263 10271 10275 10278 10282 10286 10290 10294 10297 10300 10302 10304 10306 10308 10310 10310 10311 10311 10310 10310 10308 10306 10305 10303
10158 10155 10152 10146 10139 10134 10131 10128 10124 10122 10122 10123 10125 10127 10132 10133 10137 10144 10153 10160 10167 10178 10187 10194 10200 10207 10215 10224 10232 10240 10248 10255 10259 10262 10266 10271 10275 10278 10282 10285 10289 10292 10293 10295 10295 10296 10297 10296 10296 10295 10293 10291 10289 10287
10146 10142 10139 10134 10128 10121 10118 10115 10113 10109 10108 10108 10110 10113 10115 10119 10122 10126 10133 10140 10150 10160 10170 10175 10182 10190 10199 10208 10216 10225 10231 10237 10243 10247 10250 10254 10257 10261 10266 10270 10273 10276 10277 10278 10279 10280 10280 10280 10280 10278 10275 10274 10272 10269
10134 10131 10127 10121 10116 10109 10104 10101 10099 10097 10094 10094 10094 10096 10099 10102 10106 10110 10114 10125 10135 10145 10151 10158 10165 10172 10181 10190 10198 10206 10213 10219 10225 10230 10233 10237 10241 10244 10247 10251 10254 10256 10258 10259 10261 10262 10262 10262 10260 10259 10257 10255 10252 10249
10121 10117 10114 10106 10102 10094 10090 10087 10084 10082 10080 10078 10079 10080 10082 10085 10089 10092 10100 10109 10117 10125 10131 10140 10147 10154 10162 10169 10177 10185 10194 10201 10206 10210 10214 10218 10221 10225 10228 10230 10232 10235 10238 10240 10240 10241 10241 10241 10240 10238 10236 10233 10230 10227
10107 10102 10098 10091 10086 10081 10075 10072 10069 10067 10065 10063 10062 10064 10065 10069 10073 10078 10084 10091 10099 10106 10113 10121 10129 10136 10143 10149 10156 10165 10173 10179 10184 10189 10193 10196 10198 10203 10207 10210 10212 10214 10217 10218 10218 10218 10220 10220 10216 10214 10213 10211 10207 10204
10092 10089 10082 10077 10070 10065 10060 10057 10055 10051 10049 10048 10047 10048 10049 10053 10057 10063 10068 10074 10080 10085 10093 10102 10109 10117 10124 10131 10137 10143 10149 10156 10162 10167 10170 10173 10176 10179 10183 10186 10190 10193 10194 10193 10195 10199 10199 10196 10193 10191 10189 10187 10184 10180
10075 10069 10065 10060 10055 10051 10045 10041 10039 10036 10033 10032 10032 10033 10034 10037 10041 10047 10051 10056 10062 10067 10076 10083 10089 10097 10104 10111 10117 10123 10127 10132 10137 10141 10146 10150 10154 10157 10159 10161 10164 10166 10167 10170 10175 10176 10173 10171 10170 10167 10165 10163 10161 10158
10058 10053 10048 10044 10039 10035 10030 10026 10024 10021 10019 10018 10017 10018 10020 10023 10026 10030 10034 10039 10045 10052 10057 10064 10070 10078 10085 10091 10097 10102 10107 10112 10116 10120 10124 10128 10131 10135 10137 10140 10141 10142 10146 10150 10151 10150 10149 10148 10146 10145 10144 10142 10139 10137
10043 10040 10034 10028 10024 10020 10015 10011 10008 10006 10004 10003 10003 10004 10005 10007 10010 10013 10017 10022 10028 10034 10039 10045 10051 10057 10064 10070 10076 10081 10085 10090 10094 10099 10103 10106 10109 10110 10113 10115 10118 10123 10126 10126 10126 10126 10126 10126 10125 10124 10122 10120 10118 10115
10027 10022 10016 10012 10008 10004 10001 9996 9994 9991 9989 9989 9989 9990 9991 9993 9995 9998 10001 10006 10011 10016 10022 10026 10032 10038 10043 10050 10054 10057 10062 10067 10072 10076 10080 10084 10089 10092 10094 10097 10099 10101 10102 10102 10103 10103 10104 10104 10103 10102 10100 10099 10097 10095
10010 10005 10000 9996 9992 9989 9985 9981 9979 9977 9976 9976 9976 9976 9978 9979 9981 9983 9987 9991 9996 10001 10005 10009 10014 10019 10024 10030 10033 10037 10042 10047 10051 10054 10059 10063 10067 10072 10075 10076 10078 10080 10081 10082 10083 10083 10083 10084 10083 10082 10081 10079 10077 10075
9994 9989 9985 9982 9978 9975 9971 9968 9965 9965 9964 9964 9964 9964 9965 9966 9968 9970 9973 9977 9982 9985 9989 9994 9998 10001 10006 10010 10014 10019 10023 10027 10031 10035 10040 10044 10047 10050 10053 10056 10058 10059 10061 10062 10063 10063 10063 10064 10064 10062 10061 10059 10057 10056
9980 9975 9971 9968 9965 9962 9958 9955 9953 9952 9952 9952 9953 9953 9953 9955 9957 9959 9961 9964 9969 9973 9977 9981 9985 9988 9991 9995 9998 10002 10006 10010 10013 10017 10021 10025 10029 10032 10035 10037 10039 10041 10043 10044 10044 10045 10045 10044 10043 10042 10041 10040 10040 10038